Location: İstanbul
(41.0082°N, 28.9784°E)
Time: 20:13:26
(UTC+02:00)

Oscar 11 - Pass Details

Date: 20 October 2021
Orbit: 614 x 623 km, 97.6° (Epoch: 30 November)

Event Time Altitude Azimuth Distance (km) Brightness Sun altitude
Rises 06:29:41 0° 13° (NNE) 2,902 10.6 -10.4°
Reaches altitude 10° 06:31:53 10° 15° (NNE) 1,993 9.8 -10.0°
Maximum altitude 06:36:13 76° 102° (ESE) 643 7.3 -9.2°
Drops below altitude 10° 06:40:32 10° 188° (S) 1,983 9.7 -8.4°
Sets 06:42:43 0° 190° (S) 2,886 10.5 -8.0°
